SCP
0 0 0 0 0 0 0 0 0 0 1 1 1 2 4 5 5 5 4 4 4 5 6 8 11 13 15 14 11 9 9 8 6 5 5 6 6 6 6 6 6 5 4 3
0 0 0 0 0 0 0 1 0 0 1 1 2 4 5 5 5 5 4 4 4 5 6 7 9 11 12 11 10 9 8 6 4 4 5 6 7 7 7 8 8 7 5 4
0 0 0 0 0 1 1 1 1 1 1 2 3 5 6 5 5 5 4 3 3 3 4 4 6 7 7 6 7 7 6 4 3 3 4 6 7 8 9 10 10 9 6 5
0 0 0 0 0 1 1 1 1 1 1 2 4 5 5 5 5 4 3 2 2 2 3 3 3 3 3 3 4 5 5 4 4 4 4 6 8 9 10 11 11 10 8 6
0 0 0 0 0 1 1 1 1 1 2 3 3 4 4 5 5 4 3 2 2 3 3 3 3 2 2 3 4 5 5 5 5 4 5 6 9 10 10 10 11 11 9 8
1 0 0 1 1 1 1 1 1 2 2 2 3 3 3 4 4 4 3 3 3 3 4 4 4 3 3 3 4 6 7 7 6 5 6 7 9 11 11 10 11 12 11 9
1 1 1 1 1 1 1 1 2 2 2 3 3 3 3 3 4 4 3 3 3 4 5 5 5 4 4 5 6 8 9 8 7 6 6 7 9 11 11 9 10 11 11 9
1 1 1 2 2 2 2 2 2 2 3 3 3 3 3 4 4 5 5 4 5 6 7 6 6 5 6 7 9 11 11 9 8 7 6 7 9 11 10 9 9 10 10 9
1 1 2 3 4 4 3 3 3 3 3 3 3 3 4 5 7 7 8 7 7 7 8 8 7 7 7 9 11 12 12 12 9 8 8 9 10 11 10 9 9 10 9 9
2 2 3 3 4 4 4 4 4 4 4 4 4 5 6 7 8 9 10 9 8 8 10 11 11 10 10 11 13 14 14 13 11 9 9 10 12 11 10 9 9 10 11 11
3 3 3 3 3 3 4 4 4 5 5 5 5 5 7 8 9 9 10 10 9 10 12 15 15 13 12 13 13 14 14 12 10 9 9 11 12 11 9 8 7 9 11 11
3 2 3 3 3 4 4 5 5 5 5 5 5 6 7 8 9 10 10 10 11 13 15 17 16 14 13 12 13 13 12 10 9 8 9 11 11 10 8 6 5 5 7 7
2 2 3 4 5 5 5 5 5 5 5 5 6 6 7 8 10 11 12 13 14 16 17 16 14 12 11 10 10 10 10 8 8 8 9 11 11 9 8 6 4 3 3 3
2 3 4 5 6 6 6 6 5 5 5 6 7 7 8 9 10 11 12 14 16 16 15 13 11 9 8 8 9 9 9 8 7 8 9 10 10 10 10 9 8 5 3 2
2 3 4 5 5 6 7 7 7 7 7 7 8 9 10 11 11 11 12 13 14 13 11 9 8 8 7 7 8 8 8 8 8 9 9 9 10 11 12 12 11 9 6 4
3 4 4 5 5 5 6 7 8 8 8 8 8 9 10 11 11 11 10 10 10 11 10 8 8 8 7 7 6 7 7 8 9 10 11 11 11 12 12 12 12 10 8 7
5 5 5 5 4 4 5 6 7 8 8 7 7 8 9 9 10 9 9 9 10 12 12 11 10 9 8 7 6 6 7 7 9 11 13 13 13 12 11 11 10 10 9 8
5 5 4 4 3 4 5 5 6 6 6 6 6 6 7 8 8 9 8 9 11 13 15 15 15 13 11 9 8 7 8 9 10 11 12 12 11 10 9 8 8 8 8 7
5 4 4 3 4 4 6 6 6 6 5 4 4 5 5 6 7 8 8 7 8 9 11 13 15 16 16 13 11 10 10 10 10 10 10 9 8 8 7 7 7 7 7 7
5 4 4 4 4 5 6 6 6 6 5 4 4 4 4 5 7 7 7 5 5 6 6 7 8 12 15 16 14 13 11 10 9 8 7 7 6 6 6 6 6 6 7 7
4 4 4 4 4 5 5 5 5 5 5 4 4 4 5 5 6 6 6 5 5 5 5 5 5 7 10 13 15 15 13 11 9 8 7 6 6 5 5 5 5 6 6 6
3 3 4 4 4 4 4 3 3 4 4 4 4 4 5 5 5 5 4 5 5 5 5 5 6 6 6 8 11 13 12 11 10 9 7 5 5 4 4 4 5 5 5 5
3 3 3 4 4 3 3 3 3 3 2 3 3 4 5 5 4 4 4 4 4 3 4 5 5 4 4 5 7 8 7 8 9 8 7 5 4 4 4 4 4 5 5 5
4 4 4 4 4 4 4 4 3 3 2 2 3 4 5 5 4 3 3 2 2 2 3 4 3 1 2 3 5 4 4 5 6 7 6 5 4 3 3 3 4 4 4 4
4 4 5 5 6 6 5 5 4 4 3 3 3 3 4 5 4 3 3 2 1 1 2 2 1 1 2 3 4 4 4 4 5 6 5 4 3 2 3 3 3 3 3 3
4 4 5 6 7 7 7 6 5 4 4 3 3 3 3 3 3 3 2 1 1 1 1 2 2 2 3 4 5 5 5 5 6 5 4 3 3 3 2 2 3 3 3 3
3 3 4 5 6 7 6 6 5 4 4 3 3 3 2 2 2 2 2 1 1 1 1 2 2 3 4 5 6 6 6 6 6 5 4 3 3 3 2 2 2 3 4 4
Wind_Speed
12 9 11 13 15 16 16 14 12 9 8 5 7 7 7 8 10 10 11 11 12 11 10 10 10 9 8 8 8 8 8 8 8 7 6 6 5 5 4 4 4 3 2 2
14 13 13 13 15 15 16 15 14 11 8 4 4 6 7 8 10 10 11 11 10 10 10 10 10 10 9 9 8 8 8 8 8 7 7 6 6 5 5 4 4 3 3 3
14 14 14 17 15 15 14 13 12 12 7 5 6 7 8 9 10 10 10 10 10 10 10 10 9 9 9 9 9 9 9 8 8 8 8 7 7 6 6 5 5 4 3 3
11 13 18 9 8 11 12 11 10 9 5 6 6 6 6 7 9 9 9 10 9 9 10 10 10 9 9 9 9 9 9 9 9 9 8 8 7 7 6 5 4 4 4 4
11 15 14 10 9 11 12 11 9 9 6 5 4 6 6 6 7 8 8 8 8 8 9 9 10 10 9 9 9 9 9 9 9 9 8 8 8 7 6 5 5 5 4 4
11 15 15 9 7 7 10 11 7 7 7 6 7 8 5 6 7 7 7 7 7 7 8 9 9 10 10 9 9 9 8 8 8 9 9 8 8 7 6 5 5 5 4 4
13 13 9 4 6 9 13 7 4 6 6 7 7 3 1 5 6 6 6 7 7 7 7 8 9 9 9 9 9 8 7 7 7 8 8 8 7 6 6 5 5 5 4 5
12 14 9 4 7 8 2 1 3 4 5 5 4 3 3 4 5 6 6 7 7 7 6 7 9 9 9 8 7 7 7 7 7 8 7 7 7 7 6 6 6 5 5 5
6 3 3 3 2 1 1 1 2 3 4 5 5 4 4 4 4 5 6 7 7 7 6 6 8 8 8 7 6 7 7 7 7 7 6 6 7 7 7 6 6 5 5 5
5 4 3 2 2 2 1 1 2 3 4 5 5 4 4 4 4 5 6 6 6 7 6 6 6 6 6 6 7 7 7 6 6 6 6 6 6 6 6 6 6 5 5 5
6 4 4 4 3 1 1 1 1 1 2 3 4 4 5 4 4 4 5 5 6 6 6 6 5 5 6 6 7 7 7 6 6 7 6 6 6 4 5 4 4 5 5 4
4 3 3 2 2 1 1 1 1 2 2 2 3 4 4 4 4 4 4 5 4 5 5 5 5 5 5 6 7 7 6 6 6 6 6 6 6 5 4 3 4 4 3 4
3 3 3 2 2 2 1 1 1 1 2 2 3 4 4 4 4 4 4 5 4 4 4 4 4 4 4 5 6 7 6 6 5 6 6 6 6 6 5 5 6 7 7 7
3 3 3 3 2 1 1 1 1 2 2 3 3 3 4 4 4 4 4 4 4 4 4 4 3 3 4 4 5 6 7 6 6 6 6 5 5 5 5 5 5 5 7 10
4 4 3 2 2 1 1 2 3 3 3 3 3 3 3 4 4 4 3 4 4 4 4 3 3 3 2 3 4 5 6 5 5 5 5 5 5 5 5 6 5 4 4 6
2 3 3 3 3 3 3 3 3 2 3 3 3 3 3 3 3 3 4 3 3 3 2 2 2 2 2 3 4 4 4 4 5 5 5 5 5 5 5 5 5 5 5 4
3 4 4 4 4 4 3 3 2 2 2 3 3 3 3 3 3 3 3 2 2 2 1 1 1 2 2 3 4 4 4 4 5 5 4 4 4 4 5 5 5 5 5 4
3 3 4 4 4 4 3 3 2 2 2 3 3 3 3 3 3 2 2 2 2 1 0 0 1 2 3 3 3 3 3 3 3 3 3 3 3 4 4 4 5 5 4 4
2 3 3 4 4 4 3 3 2 2 2 2 3 2 3 2 2 2 2 2 1 1 1 1 1 2 2 2 2 3 3 3 3 3 3 3 4 4 4 4 4 5 5 4
2 2 1 2 3 3 3 2 2 2 2 2 2 3 3 2 2 2 1 1 1 1 1 1 1 1 2 2 3 3 3 3 3 3 3 3 4 4 4 4 5 5 5 4
2 2 1 1 1 2 3 2 2 2 2 2 2 2 3 2 2 2 3 2 1 1 2 3 3 2 2 1 4 3 2 2 3 3 3 4 4 4 4 4 4 4 4 4
2 1 1 0 1 2 2 2 2 3 3 3 3 3 3 3 3 2 2 2 2 2 3 2 2 1 0 2 3 3 3 2 3 3 3 3 4 4 4 4 4 4 4 4
2 1 0 0 0 1 1 1 2 2 2 2 3 3 3 2 2 2 2 2 2 2 3 2 1 0 2 4 3 3 4 4 4 4 4 4 4 4 4 5 4 5 4 4
1 1 1 1 2 2 2 2 2 1 2 2 2 3 3 3 2 2 1 1 1 2 3 1 1 3 5 4 3 3 4 4 5 5 5 4 4 4 4 4 5 4 4 5
0 0 1 2 2 2 2 2 2 2 2 1 1 2 2 1 1 1 1 1 1 3 3 3 4 6 6 4 4 4 4 4 4 4 4 5 5 5 4 4 5 4 4 4
1 1 0 1 1 1 1 1 1 1 1 1 1 1 1 1 1 1 1 2 2 2 3 2 3 4 4 3 4 4 4 4 4 4 5 4 5 5 4 4 5 4 4 4
1 1 1 1 1 1 1 1 1 1 1 0 0 0 1 1 1 1 1 2 2 2 2 2 2 2 3 3 3 3 3 3 3 3 3 3 3 3 3 3 3 3 3 4
Wind_Direction
234 225 209 213 213 213 226 237 242 234 234 215 197 186 177 170 169 170 170 174 176 177 174 173 173 174 177 178 177 176 177 180 180 181 181 180 181 183 184 185 177 168 165 157
223 219 214 219 218 216 224 234 240 244 234 206 193 181 179 180 177 177 176 176 177 179 176 177 177 178 179 180 178 177 181 182 176 176 179 181 182 181 181 183 182 175 177 172
216 213 217 220 216 215 218 227 237 237 234 185 192 197 192 187 185 184 181 178 179 181 180 179 180 180 182 180 175 178 182 181 177 178 181 182 184 182 184 184 181 183 184 184
217 210 224 216 215 221 223 227 234 243 240 214 207 198 192 191 190 186 182 179 180 181 180 179 176 177 179 176 176 180 182 183 182 183 183 181 185 186 187 185 181 183 185 187
221 218 218 207 209 217 221 228 232 237 228 209 194 180 182 187 189 187 182 179 178 181 179 175 173 172 174 177 177 182 184 186 185 185 183 183 187 187 186 185 185 186 183 187
221 226 222 208 198 217 225 226 223 225 220 205 199 213 189 173 178 177 175 169 168 171 170 169 172 170 173 176 178 185 187 187 184 184 185 186 186 186 183 185 190 193 185 187
220 224 220 184 184 199 216 219 205 208 208 202 212 251 101 147 162 165 166 164 162 164 167 170 168 168 175 178 183 183 179 179 181 183 185 185 181 181 179 184 189 198 193 191
220 224 206 145 189 205 212 102 189 197 197 199 197 180 143 147 157 163 166 165 163 161 162 165 168 172 176 181 177 172 172 176 181 186 189 180 178 178 181 184 189 196 198 204
226 221 93 161 203 170 229 219 218 211 201 190 192 182 168 158 159 165 171 168 166 162 158 161 170 175 176 174 170 171 173 178 183 187 189 184 183 181 183 187 201 203 204 207
204 186 182 185 206 194 221 244 247 226 205 191 187 177 168 162 157 164 168 167 163 162 162 162 167 176 178 171 172 176 176 177 183 184 187 186 192 191 194 193 203 209 212 215
208 207 207 206 203 199 224 243 232 223 208 189 175 176 169 162 157 161 162 164 165 168 167 165 165 171 177 174 177 182 181 183 189 189 190 189 193 200 206 207 215 222 222 218
213 196 223 216 214 228 235 244 233 195 182 177 172 166 162 155 150 156 157 156 161 166 164 162 163 170 175 177 180 184 188 192 200 197 189 196 193 194 186 212 176 197 244 261
261 259 261 256 245 247 244 241 224 195 176 158 145 146 147 141 142 146 149 151 155 158 154 155 165 173 176 178 183 191 199 198 205 204 198 202 202 205 200 194 198 209 217 223
251 249 245 231 215 195 195 178 160 156 142 125 129 136 133 131 134 141 147 149 147 149 154 160 167 174 178 180 189 199 206 200 209 206 206 205 208 213 217 216 209 211 207 211
231 233 234 218 184 156 152 145 135 127 120 117 121 125 130 137 140 142 141 141 151 161 163 166 166 173 185 185 196 206 207 203 209 213 210 211 214 220 223 226 228 226 212 188
209 197 194 191 180 165 153 145 136 127 124 119 116 115 119 124 129 137 142 152 161 164 163 174 178 178 194 194 202 206 202 192 207 213 212 210 213 222 225 225 228 231 229 217
201 190 185 187 184 175 164 152 136 132 125 120 120 119 122 124 123 126 128 125 126 137 167 186 186 183 197 207 217 210 192 175 194 213 212 215 221 226 228 229 232 233 234 213
213 210 199 189 182 174 167 158 145 138 127 120 126 128 129 133 130 118 107 103 107 103 45 259 211 209 208 211 211 212 198 180 194 211 213 218 229 231 235 236 237 239 235 201
179 191 189 184 189 181 169 162 149 135 133 142 147 142 137 137 131 125 123 135 148 177 265 264 257 234 222 199 214 206 206 198 201 213 223 207 227 236 238 238 238 237 236 226
114 122 145 170 177 170 157 150 153 153 154 156 153 151 146 147 148 145 154 235 274 265 216 218 234 262 242 200 237 214 204 207 216 220 228 229 232 237 241 244 244 240 237 230
96 93 106 163 172 162 148 147 166 171 167 176 178 176 172 179 188 191 210 227 230 247 239 216 223 224 226 225 231 237 223 226 235 236 238 240 242 245 246 248 248 247 245 241
86 83 75 178 165 154 142 151 185 192 183 183 191 194 195 205 210 216 236 255 255 252 247 234 220 132 271 267 242 249 247 236 241 248 250 254 255 252 248 249 252 252 249 248
101 103 111 170 152 161 161 173 200 199 190 194 205 212 221 236 244 242 247 243 245 263 274 292 3 124 255 251 248 246 252 253 249 246 247 252 257 257 252 249 251 254 253 251
114 131 185 212 201 200 203 202 208 204 205 217 217 222 227 225 231 240 246 202 234 260 278 292 198 233 247 247 249 250 251 253 254 255 257 256 255 254 255 254 254 251 249 249
335 277 228 204 204 204 184 180 190 201 214 212 208 204 221 231 251 285 274 247 225 242 251 225 215 231 243 251 251 253 256 262 272 278 274 270 266 262 257 255 255 250 245 245
212 261 303 278 286 268 233 223 230 223 204 196 212 227 234 212 215 235 249 253 257 256 262 252 226 229 247 256 261 266 267 262 256 261 271 272 271 272 271 266 262 260 256 254
204 209 219 225 226 231 239 242 231 223 224 231 288 318 279 253 243 249 265 269 266 259 257 257 255 253 261 264 267 271 277 283 284 284 287 285 281 275 270 269 269 263 260 258